H1 CPF 2 NER 2024 8 21 9 234 01 glonass142 H2 2001801 9142 45358 2024 8 21 0 0 0 2024 8 24 23 45 0 900 1 1 0 0 0 1 H9 10 0 60543 0.00000 0 -20819521.369 4507287.741 14027521.891 10 0 60543 900.00000 0 -22388587.523 4524678.892 11343546.215 10 0 60543 1800.00000 0 -23608411.401 4656769.214 8439085.227 10 0 60543 2700.00000 0 -24448541.060 4853615.584 5370535.360 10 0 60543 3600.00000 0 -24891120.759 5061118.196 2197528.224 10 0 60543 4500.00000 0 -24931555.371 5223541.040 -1018231.259 10 0 60543 5400.00000 0 -24578635.436 5286110.438 -4214170.858 10 0 60543 6300.00000 0 -23854116.927 5197580.429 -7328076.977 10 0 60543 7200.00000 0 -22791772.986 4912654.860 -10299315.562 10 0 60543 8100.00000 0 -21435957.526 4394161.978 -13070023.050 10 0 60543 9000.00000 0 -19839741.417 3614887.705 -15586243.015 10 0 60543 9900.00000 0 -18062700.260 2558988.383 -17798985.260 10 0 60543 10800.00000 0 -16168447.543 1222921.762 -19665185.992 10 0 60543 11700.00000 0 -14222017.607 -384144.437 -21148549.855 10 0 60543 12600.00000 0 -12287209.040 -2240464.665 -22220257.233 10 0 60543 13500.00000 0 -10424000.410 -4312383.737 -22859523.181 10 0 60543 14400.00000 0 -8686146.815 -6555513.671 -23053997.482 10 0 60543 15300.00000 0 -7119057.707 -8916370.288 -22799998.542 10 0 60543 16200.00000 0 -5758044.211 -11334401.438 -22102577.240 10 0 60543 17100.00000 0 -4627008.239 -13744322.284 -20975410.097 10 0 60543 18000.00000 0 -3737626.941 -16078660.318 -19440524.471 10 0 60543 18900.00000 0 -3089064.961 -18270404.092 -17527861.653 10 0 60543 19800.00000 0 -2668224.757 -20255645.423 -15274686.793 10 0 60543 20700.00000 0 -2450522.574 -21976105.139 -12724857.513 10 0 60543 21600.00000 0 -2401155.629 -23381437.466 -9927965.755 10 0 60543 22500.00000 0 -2476805.497 -24431217.357 -6938369.777 10 0 60543 23400.00000 0 -2627704.481 -25096528.662 -3814135.433 10 0 60543 24300.00000 0 -2799976.664 -25361087.469 -615907.512 10 0 60543 25200.00000 0 -2938153.942 -25221854.535 2594266.809 10 0 60543 26100.00000 0 -2987760.246 -24689112.376 5754139.344 10 0 60543 27000.00000 0 -2897854.491 -23786004.618 8802463.850 10 0 60543 27900.00000 0 -2623424.818 -22547557.829 11680177.387 10 0 60543 28800.00000 0 -2127533.116 -21019227.435 14331537.491 10 0 60543 29700.00000 0 -1383119.483 -19255028.842 16705193.720 10 0 60543 30600.00000 0 -374390.530 -17315331.934 18755173.580 10 0 60543 31500.00000 0 902267.066 -15264410.783 20441764.590 10 0 60543 32400.00000 0 2437886.729 -13167850.147 21732276.366 10 0 60543 33300.00000 0 4211053.544 -11089915.991 22601668.881 10 0 60543 34200.00000 0 6188563.042 -9090998.494 23033035.463 10 0 60543 35100.00000 0 8326581.340 -7225232.864 23017931.662 10 0 60543 36000.00000 0 10572260.141 -5538395.852 22556543.775 10 0 60543 36900.00000 0 12865741.299 -4066164.620 21657693.496 10 0 60543 37800.00000 0 15142469.423 -2832809.709 20338677.978 10 0 60543 38700.00000 0 17335718.014 -1850376.114 18624947.418 10 0 60543 39600.00000 0 19379225.307 -1118386.429 16549625.193 10 0 60543 40500.00000 0 21209830.941 -624078.430 14152878.495 10 0 60543 41400.00000 0 22770003.913 -343167.247 11481150.328 10 0 60543 42300.00000 0 24010156.123 -241100.272 8586266.626 10 0 60543 43200.00000 0 24890644.231 -274752.009 5524434.967 10 0 60543 44100.00000 0 25383375.067 -394487.332 2355153.830 10 0 60543 45000.00000 0 25472946.154 -546505.563 -859946.410 10 0 60543 45900.00000 0 25157272.308 -675365.555 -4058307.823 10 0 60543 46800.00000 0 24447670.919 -726583.820 -7177670.426 10 0 60543 47700.00000 0 23368401.515 -649194.341 -10157293.932 10 0 60543 48600.00000 0 21955678.515 -398160.088 -12939150.781 10 0 60543 49500.00000 0 20256198.508 63467.551 -15469066.087 10 0 60543 50400.00000 0 18325244.228 762734.447 -17697781.177 10 0 60543 51300.00000 0 16224445.334 1715392.788 -19581919.220 10 0 60543 52200.00000 0 14019290.563 2924993.630 -21084833.609 10 0 60543 53100.00000 0 11776496.259 4382502.336 -22177322.339 10 0 60543 54000.00000 0 9561341.972 6066454.005 -22838194.582 10 0 60543 54900.00000 0 7435084.902 7943642.998 -23054678.776 10 0 60543 55800.00000 0 5452561.232 9970318.099 -22822664.793 10 0 60543 56700.00000 0 3660074.116 12093833.444 -22146776.137 10 0 60543 57600.00000 0 2093655.646 14254686.323 -21040271.379 10 0 60543 58500.00000 0 777774.189 16388856.655 -19524777.396 10 0 60543 59400.00000 0 -275460.539 18430350.437 -17629860.153 10 0 60543 60300.00000 0 -1066563.259 20313840.965 -15392441.798 10 0 60543 61200.00000 0 -1608400.661 21977297.588 -12856075.831 10 0 60543 62100.00000 0 -1925394.173 23364492.347 -10070094.738 10 0 60543 63000.00000 0 -2052233.448 24427280.093 -7088646.933 10 0 60543 63900.00000 0 -2032156.462 25127557.174 -3969642.012 10 0 60543 64800.00000 0 -1914870.192 25438817.261 -773625.008 10 0 60543 65700.00000 0 -1754200.754 25347239.976 2437398.269 10 0 60543 66600.00000 0 -1605573.023 24852267.313 5601161.924 10 0 60543 67500.00000 0 -1523426.692 23966644.529 8656343.360 10 0 60543 68400.00000 0 -1558678.079 22715924.557 11543746.195 10 0 60543 69300.00000 0 -1756334.826 21137457.055 14207440.097 10 0 60543 70200.00000 0 -2153363.998 19278904.672 16595836.025 10 0 60543 71100.00000 0 -2776903.305 17196348.492 18662676.778 10 0 60543 72000.00000 0 -3642890.767 14952061.351 20367924.530 10 0 60543 72900.00000 0 -4755170.679 12612041.218 21678529.124 10 0 60543 73800.00000 0 -6105113.973 10243406.391 22569063.151 10 0 60543 74700.00000 0 -7671769.868 7911759.774 23022212.244 10 0 60543 75600.00000 0 -9422543.782 5678630.550 23029111.617 10 0 60543 76500.00000 0 -11314374.860 3599098.307 22589522.494 10 0 60543 77400.00000 0 -13295365.788 1719697.251 21711844.780 10 0 60543 78300.00000 0 -15306798.810 76686.649 20412965.127 10 0 60543 79200.00000 0 -17285455.701 -1305241.221 18717942.396 10 0 60543 80100.00000 0 -19166146.426 -2413762.257 16659535.369 10 0 60543 81000.00000 0 -20884342.083 -3249197.628 14277580.559 10 0 60543 81900.00000 0 -22378802.803 -3824255.275 11618230.810 10 0 60543 82800.00000 0 -23594090.782 -4163246.623 8733068.315 10 0 60543 83700.00000 0 -24482862.803 -4300811.400 5678108.365 10 0 60543 84600.00000 0 -25007845.271 -4280204.396 2512712.656 10 0 60543 85500.00000 0 -25143407.670 -4151216.741 -701566.755 10 0 60544 0.00000 0 -24876667.004 -3967820.172 -3902189.753 10 0 60544 900.00000 0 -24208075.225 -3785634.748 -7026854.298 10 0 60544 1800.00000 0 -23151464.173 -3659328.654 -10014717.202 10 0 60544 2700.00000 0 -21733544.743 -3640061.322 -12807590.338 10 0 60544 3600.00000 0 -19992880.990 -3773079.914 -15351083.507 10 0 60544 4500.00000 0 -17978382.047 -4095572.414 -17595672.325 10 0 60544 5400.00000 0 -15747375.254 -4634869.629 -19497669.220 10 0 60544 6300.00000 0 -13363341.671 -5407073.424 -21020078.065 10 0 60544 7200.00000 0 -10893409.316 -6416170.175 -22133315.574 10 0 60544 8100.00000 0 -8405709.464 -7653667.655 -22815785.483 10 0 60544 9000.00000 0 -5966706.787 -9098771.261 -23054294.693 10 0 60544 9900.00000 0 -3638614.873 -10719092.514 -22844303.762 10 0 60544 10800.00000 0 -1477004.680 -12471860.298 -22190007.519 10 0 60544 11700.00000 0 471295.050 -14305584.092 -21104244.856 10 0 60544 12600.00000 0 2169918.882 -16162099.450 -19608240.116 10 0 60544 13500.00000 0 3594236.938 -17978909.979 -17731181.616 10 0 60544 14400.00000 0 4732126.981 -19691727.715 -15509646.006 10 0 60544 15300.00000 0 5584216.013 -21237105.483 -12986880.040 10 0 60544 16200.00000 0 6163583.402 -22555051.031 -10211954.059 10 0 60544 17100.00000 0 6494940.162 -23591513.689 -7238803.911 10 0 60544 18000.00000 0 6613320.832 -24300639.542 -4125180.225 10 0 60544 18900.00000 0 6562344.774 -24646701.001 -931525.659 10 0 60544 19800.00000 0 6392121.615 -24605620.305 2280197.901 10 0 60544 20700.00000 0 6156890.281 -24166023.524 5447709.274 10 0 60544 21600.00000 0 5912492.023 -23329781.498 8509611.780 10 0 60544 22500.00000 0 5713784.493 -22112015.445 11406577.691 10 0 60544 23400.00000 0 5612106.089 -20540567.375 14082490.708 10 0 60544 24300.00000 0 5652897.420 -18654957.604 16485524.847 10 0 60544 25200.00000 0 5873579.897 -16504872.668 18569139.604 10 0 60544 26100.00000 0 6301780.612 -14148246.410 20292972.953 10 0 60544 27000.00000 0 6953978.066 -11649013.446 21623615.832 10 0 60544 27900.00000 0 7834625.858 -9074627.459 22535254.048 10 0 60544 28800.00000 0 8935791.622 -6493446.343 23010165.888 10 0 60544 29700.00000 0 10237327.252 -3972091.392 23039066.355 10 0 60544 30600.00000 0 11707564.601 -1572888.810 22621291.535 10 0 60544 31500.00000 0 13304509.083 648501.559 21764819.312 10 0 60544 32400.00000 0 14977483.062 2645172.959 20486125.473 10 0 60544 33300.00000 0 16669152.079 4380688.110 18809877.024 10 0 60544 34200.00000 0 18317850.837 5830354.461 16768467.492 10 0 60544 35100.00000 0 19860112.939 6982005.543 14401401.867 10 0 60544 36000.00000 0 21233299.388 7836255.982 11754541.769 10 0 60544 36900.00000 0 22378216.021 8406219.521 8879224.313 10 0 60544 37800.00000 0 23241609.910 8716701.897 5831270.866 10 0 60544 38700.00000 0 23778439.171 8802902.571 2669904.399 10 0 60544 39600.00000 0 23953819.651 8708680.241 -543403.600 10 0 60544 40500.00000 0 23744565.167 8484455.840 -3746133.892 10 0 60544 41400.00000 0 23140254.948 8184842.368 -6875943.900 10 0 60544 42300.00000 0 22143781.816 7866102.877 -9871890.874 10 0 60544 43200.00000 0 20771356.744 7583545.474 -12675628.856 10 0 60544 44100.00000 0 19051968.544 7388967.026 -15232554.991 10 0 60544 45000.00000 0 17026320.732 7328255.232 -17492881.697 10 0 60544 45900.00000 0 14745289.910 7439251.924 -19412612.995 10 0 60544 46800.00000 0 12267970.260 7749969.136 -20954405.402 10 0 60544 47700.00000 0 9659386.281 8277234.323 -22088296.326 10 0 60544 48600.00000 0 6987969.699 9025822.628 -22792285.857 10 0 60544 49500.00000 0 4322906.183 9988113.242 -23052760.927 10 0 60544 50400.00000 0 1731462.703 11144284.557 -22864754.078 10 0 60544 51300.00000 0 -723593.239 12463039.942 -22232032.438 10 0 60544 52200.00000 0 -2986375.466 13902833.528 -21167015.827 10 0 60544 53100.00000 0 -5009963.670 15413544.305 -19690526.212 10 0 60544 54000.00000 0 -6758105.031 16938528.044 -17831373.981 10 0 60544 54900.00000 0 -8206463.549 18416960.707 -15625789.533 10 0 60544 55800.00000 0 -9343366.712 19786374.772 -13116711.665 10 0 60544 56700.00000 0 -10170020.435 20985281.983 -10352946.934 10 0 60544 57600.00000 0 -10700185.376 21955772.420 -7388216.600 10 0 60544 58500.00000 0 -10959330.254 22645980.795 -4280109.950 10 0 60544 59400.00000 0 -10983299.787 23012316.688 -1088964.587 10 0 60544 60300.00000 0 -10816554.873 23021365.239 2123304.444 10 0 60544 61200.00000 0 -10510060.556 22651378.773 5294403.788 10 0 60544 62100.00000 0 -10118911.844 21893297.185 8362865.907 10 0 60544 63000.00000 0 -9699798.070 20751254.498 11269235.009 10 0 60544 63900.00000 0 -9308413.001 19242550.571 13957212.078 10 0 60544 64800.00000 0 -8996919.813 17397089.109 16374737.363 10 0 60544 65700.00000 0 -8811577.490 15256305.179 18474990.091 10 0 60544 66600.00000 0 -8790628.194 12871626.502 20217286.868 10 0 60544 67500.00000 0 -8962534.171 10302531.822 21567862.317 10 0 60544 68400.00000 0 -9344638.053 7614286.045 22500517.750 10 0 60544 69300.00000 0 -9942302.910 4875444.968 22997126.051 10 0 60544 70200.00000 0 -10748568.519 2155231.756 23047983.567 10 0 60544 71100.00000 0 -11744339.081 -479107.538 22652002.343 10 0 60544 72000.00000 0 -12899095.647 -2964861.130 21816738.855 10 0 60544 72900.00000 0 -14172104.857 -5246216.563 20558258.089 10 0 60544 73800.00000 0 -15514074.924 -7276336.556 18900834.706 10 0 60544 74700.00000 0 -16869191.057 -9019060.122 16876495.906 10 0 60544 75600.00000 0 -18177446.361 -10450158.660 14524413.524 10 0 60544 76500.00000 0 -19377171.526 -11558094.880 11890155.798 10 0 60544 77400.00000 0 -20407657.622 -12344252.876 9024812.137 10 0 60544 78300.00000 0 -21211761.862 -12822629.687 5984006.959 10 0 60544 79200.00000 0 -21738386.218 -13019001.278 2826821.154 10 0 60544 80100.00000 0 -21944723.554 -12969598.112 -385357.940 10 0 60544 81000.00000 0 -21798175.276 -12719346.464 -3590035.440 10 0 60544 81900.00000 0 -21277858.080 -12319750.266 -6724832.647 10 0 60544 82800.00000 0 -20375634.599 -11826503.860 -9728710.808 10 0 60544 83700.00000 0 -19096622.917 -11296937.704 -12543169.923 10 0 60544 84600.00000 0 -17459162.092 -10787406.353 -15113398.081 10 0 60544 85500.00000 0 -15494234.056 -10350730.574 -17389347.820 10 0 60545 0.00000 0 -13244365.633 -10033803.082 -19326717.507 10 0 60545 900.00000 0 -10762055.095 -9875460.091 -20887819.025 10 0 60545 1800.00000 0 -8107792.081 -9904709.946 -22042312.042 10 0 60545 2700.00000 0 -5347749.767 -10139393.597 -22767794.062 10 0 60545 3600.00000 0 -2551248.695 -10585334.222 -23050232.413 10 0 60545 4500.00000 0 211902.990 -11236011.703 -22884231.319 10 0 60545 5400.00000 0 2874081.979 -12072775.478 -22273129.315 10 0 60545 6300.00000 0 5372423.971 -13065586.495 -21228925.732 10 0 60545 7200.00000 0 7651192.998 -14174256.592 -19772038.338 10 0 60545 8100.00000 0 9663848.260 -15350132.696 -17930897.419 10 0 60545 9000.00000 0 11374723.653 -16538154.577 -15741384.671 10 0 60545 9900.00000 0 12760251.555 -17679199.209 -13246128.252 10 0 60545 10800.00000 0 13809681.647 -18712612.830 -10493668.066 10 0 60545 11700.00000 0 14525266.660 -19578823.994 -7537507.730 10 0 60545 12600.00000 0 14921909.482 -20221927.670 -4435072.041 10 0 60545 13500.00000 0 15026288.278 -20592131.655 -1246590.341 10 0 60545 14400.00000 0 14875498.201 -20647962.414 1966072.356 10 0 60545 15300.00000 0 14515268.455 -20358137.894 5140613.589 10 0 60545 16200.00000 0 13997830.874 -19703028.608 8215497.844 10 0 60545 17100.00000 0 13379530.693 -18675645.858 11131143.878 10 0 60545 18000.00000 0 12718280.588 -17282115.743 13831072.243 10 0 60545 18900.00000 0 12070965.219 -15541618.858 16262991.327 10 0 60545 19800.00000 0 11490905.343 -13485797.873 18379801.589 10 0 60545 20700.00000 0 11025487.733 -11157657.133 20140499.354 10 0 60545 21600.00000 0 10714060.019 -8609999.269 21510963.608 10 0 60545 22500.00000 0 10586178.374 -5903462.685 22464611.465 10 0 60545 23400.00000 0 10660281.290 -3104240.140 22982910.369 10 0 60545 24300.00000 0 10942844.984 -281571.554 23055737.656 10 0 60545 25200.00000 0 11428056.128 2494886.608 22681580.744 10 0 60545 26100.00000 0 12098016.278 5157707.829 21867573.904 10 0 60545 27000.00000 0 12923470.358 7644249.651 20629370.378 10 0 60545 27900.00000 0 13865029.908 9899010.630 18990851.417 10 0 60545 28800.00000 0 14874841.073 11875693.133 16983676.725 10 0 60545 29700.00000 0 15898628.608 13538886.780 14646683.704 10 0 60545 30600.00000 0 16878031.119 14865302.686 12025145.806 10 0 60545 31500.00000 0 17753130.017 15844506.981 9169903.184 10 0 60545 32400.00000 0 18465066.013 16479122.836 6136381.574 10 0 60545 33300.00000 0 18958632.655 16784492.345 2983517.879 10 0 60545 34200.00000 0 19184736.749 16787812.406 -227386.811 10 0 60545 35100.00000 0 19102620.649 16526781.065 -3433864.197 10 0 60545 36000.00000 0 18681751.075 16047811.735 -6573501.783 10 0 60545 36900.00000 0 17903292.985 15403891.287 -9585167.160 10 0 60545 37800.00000 0 16761104.550 14652173.390 -12410208.585 10 0 60545 38700.00000 0 15262209.621 13851409.893 -14993607.302 10 0 60545 39600.00000 0 13426726.337 13059330.036 -17285058.047 10 0 60545 40500.00000 0 11287253.767 12330079.429 -19239955.780 10 0 60545 41400.00000 0 8887741.504 11711828.050 -20820268.847 10 0 60545 42300.00000 0 6281889.139 11244649.114 -21995281.207 10 0 60545 43200.00000 0 3531142.338 10958758.834 -22742189.287 10 0 60545 44100.00000 0 702369.200 10873191.515 -23046542.144 10 0 60545 45000.00000 0 -2134686.210 10994965.701 -22902516.795 10 0 60545 45900.00000 0 -4910067.028 11318776.085 -22313024.001 10 0 60545 46800.00000 0 -7556272.856 11827223.547 -21289643.078 10 0 60545 47700.00000 0 -10010824.391 12491572.893 -19852387.672 10 0 60545 48600.00000 0 -12218617.403 13273005.557 -18029307.627 10 0 60545 49500.00000 0 -14133969.105 14124313.794 -15855935.181 10 0 60545 50400.00000 0 -15722272.880 14991964.275 -13374586.726 10 0 60545 51300.00000 0 -16961193.962 15818443.600 -10633534.033 10 0 60545 52200.00000 0 -17841357.872 16544786.453 -7686061.341 10 0 60545 53100.00000 0 -18366504.739 17113179.602 -4589426.954 10 0 60545 54000.00000 0 -18553104.906 17469531.816 -1403749.723 10 0 60545 54900.00000 0 -18429453.788 17565901.413 1809157.777 10 0 60545 55800.00000 0 -18034285.559 17362679.151 4986986.588 10 0 60545 56700.00000 0 -17414965.301 16830434.623 8068135.993 10 0 60545 57600.00000 0 -16625336.713 15951348.661 10992902.196 10 0 60545 58500.00000 0 -15723316.451 14720171.427 13704628.300 10 0 60545 59400.00000 0 -14768336.554 13144665.890 16150793.846 10 0 60545 60300.00000 0 -13818742.292 11245517.692 18284023.480 10 0 60545 61200.00000 0 -12929254.385 9055714.476 20062996.072 10 0 60545 62100.00000 0 -12148601.509 6619419.669 21453237.588 10 0 60545 63000.00000 0 -11517421.745 3990386.370 22427783.290 10 0 60545 63900.00000 0 -11066520.332 1229975.880 22967697.180 10 0 60545 64800.00000 0 -10815556.241 -1595138.515 23062439.212 10 0 60545 65700.00000 0 -10772212.420 -4415488.957 22710073.375 10 0 60545 66600.00000 0 -10931884.560 -7161448.937 21917312.489 10 0 60545 67500.00000 0 -11277901.899 -9765879.997 20699398.330 10 0 60545 68400.00000 0 -11782271.532 -12166680.781 19079818.525 10 0 60545 69300.00000 0 -12406915.967 -14309133.600 17089864.580 10 0 60545 70200.00000 0 -13105352.970 -16147951.654 14768038.281 10 0 60545 71100.00000 0 -13824748.054 -17648941.984 12159316.649 10 0 60545 72000.00000 0 -14508253.903 -18790214.794 9314288.518 10 0 60545 72900.00000 0 -15097538.590 -19562888.371 6288178.514 10 0 60545 73800.00000 0 -15535395.803 -19971259.777 3139776.784 10 0 60545 74700.00000 0 -15768326.338 -20032433.841 -69704.875 10 0 60545 75600.00000 0 -15748980.768 -19775425.874 -3277828.026 10 0 60545 76500.00000 0 -15438358.614 -19239775.969 -6422149.856 10 0 60545 77400.00000 0 -14807669.411 -18473733.625 -9441447.918 10 0 60545 78300.00000 0 -13839775.192 -17532089.950 -12276922.414 10 0 60545 79200.00000 0 -12530151.709 -16473749.812 -14873351.401 10 0 60545 80100.00000 0 -10887326.156 -15359147.493 -17180175.326 10 0 60545 81000.00000 0 -8932771.572 -14247616.024 -19152488.830 10 0 60545 81900.00000 0 -6700261.196 -13194822.207 -20751919.908 10 0 60545 82800.00000 0 -4234709.078 -12250376.314 -21947378.930 10 0 60545 83700.00000 0 -1590544.983 -11455717.733 -22715662.959 10 0 60545 84600.00000 0 1170308.768 -10842365.765 -23041903.840 10 0 60545 85500.00000 0 3980774.200 -10430609.044 -22919851.803 10 0 60546 0.00000 0 6771170.730 -10228688.176 -22351989.721 10 0 60546 900.00000 0 9471879.687 -10232505.084 -21349476.082 10 0 60546 1800.00000 0 12016005.879 -10425870.484 -19931919.246 10 0 60546 2700.00000 0 14341930.898 -10781277.576 -18126986.993 10 0 60546 3600.00000 0 16395648.829 -11261168.511 -15969860.099 10 0 60546 4500.00000 0 18132789.546 -11819639.089 -13502540.806 10 0 60546 5400.00000 0 19520246.135 -12404508.863 -10773030.009 10 0 60546 6300.00000 0 20537340.122 -12959668.615 -7834389.489 10 0 60546 7200.00000 0 21176477.321 -13427605.616 -4743707.702 10 0 60546 8100.00000 0 21443268.598 -13751999.686 -1560989.465 10 0 60546 9000.00000 0 21356112.194 -13880280.357 1652008.741 10 0 60546 9900.00000 0 20945256.628 -13766037.103 4832975.086 10 0 60546 10800.00000 0 20251384.980 -13371181.050 7920247.116 10 0 60546 11700.00000 0 19323781.062 -12667767.116 10854001.685 10 0 60546 12600.00000 0 18218155.278 -11639399.872 13577407.283 10 0 60546 13500.00000 0 16994221.806 -10282163.900 16037716.985 10 0 60546 14400.00000 0 15713128.729 -8605039.184 18187281.531 10 0 60546 15300.00000 0 14434848.628 -6629783.517 19984463.752 10 0 60546 16200.00000 0 13215638.378 -4390285.923 21394437.521 10 0 60546 17100.00000 0 12105673.775 -1931416.788 22389856.709 10 0 60546 18000.00000 0 11146957.183 692578.885 22951381.909 10 0 60546 18900.00000 0 10371584.992 3420080.029 23068055.326 10 0 60546 19800.00000 0 9800446.751 6184398.717 22737516.797 10 0 60546 20700.00000 0 9442410.099 8916305.978 21966056.667 10 0 60546 21600.00000 0 9294025.541 11546671.190 20768503.958 10 0 60546 22500.00000 0 9339763.728 14009107.002 19167951.188 10 0 60546 23400.00000 0 9552775.796 16242511.097 17195320.004 10 0 60546 24300.00000 0 9896145.534 18193399.929 14888774.775 10 0 60546 25200.00000 0 10324581.488 19817937.639 12292994.182 10 0 60546 26100.00000 0 10786478.354 21083575.557 9458313.702 10 0 60546 27000.00000 0 11226261.171 21970233.469 6439754.701 10 0 60546 27900.00000 0 11586913.379 22470972.758 3295958.320 10 0 60546 28800.00000 0 11812581.545 22592132.626 88044.727 10 0 60546 29700.00000 0 11851145.750 22352923.244 -3121579.888 10 0 60546 30600.00000 0 11656645.684 21784492.677 -6270444.760 10 0 60546 31500.00000 0 11191458.196 20928506.887 -9297239.703 10 0 60546 32400.00000 0 10428132.458 19835302.985 -12143019.028 10 0 60546 33300.00000 0 9350803.287 18561694.190 -14752359.616 10 0 60546 34200.00000 0 7956121.193 17168519.882 -17074449.446 10 0 60546 35100.00000 0 6253658.276 15718044.983 -19064084.474 10 0 60546 36000.00000 0 4265771.543 14271319.162 -20682553.800 10 0 60546 36900.00000 0 2026928.286 12885607.889 -21898395.497 10 0 60546 37800.00000 0 -417478.936 11612004.001 -22688008.372 10 0 60546 38700.00000 0 -3012778.652 10493320.396 -23036107.981 10 0 60546 39600.00000 0 -5697059.609 9562352.288 -22936018.447 10 0 60546 40500.00000 0 -8403517.777 8840581.420 -22389795.006 10 0 60546 41400.00000 0 -11063013.510 8337375.756 -21408175.560 10 0 60546 42300.00000 0 -13606732.460 8049717.031 -20010362.787 10 0 60546 43200.00000 0 -15968839.749 7962466.202 -18223641.690 10 0 60546 44100.00000 0 -18089017.303 8049154.131 -16082840.513 10 0 60546 45000.00000 0 -19914779.246 8273262.729 -13629645.966 10 0 60546 45900.00000 0 -21403469.768 8589941.222 -10911786.461 10 0 60546 46800.00000 0 -22523861.186 8948084.020 -7982099.524 10 0 60546 47700.00000 0 -23257286.660 9292681.540 -4897501.823 10 0 60546 48600.00000 0 -23598261.752 9567344.090 -1717882.074 10 0 60546 49500.00000 0 -23554570.135 9716891.768 1495061.528 10 0 60546 50400.00000 0 -23146811.255 9689900.691 4679016.607 10 0 60546 51300.00000 0 -22407430.371 9441098.052 7772261.446 10 0 60546 52200.00000 0 -21379272.629 8933504.897 10714856.142 10 0 60546 53100.00000 0 -20113722.679 8140236.340 13449797.258 10 0 60546 54000.00000 0 -18668508.259 7045883.347 15924114.128 10 0 60546 54900.00000 0 -17105259.854 5647417.724 18089886.267 10 0 60546 55800.00000 0 -15486928.388 3954581.841 19905163.003 10 0 60546 56700.00000 0 -13875168.419 1989745.930 21334768.432 10 0 60546 57600.00000 0 -12327795.434 -212762.237 22350977.048 10 0 60546 58500.00000 0 -10896422.576 -2607828.773 22934047.686 10 0 60546 59400.00000 0 -9624374.517 -5141179.154 23072606.061 10 0 60546 60300.00000 0 -8544964.713 -7751392.037 22763868.728 10 0 60546 61200.00000 0 -7680207.314 -10372219.639 22013704.002 10 0 60546 62100.00000 0 -7040017.100 -12935120.159 20836528.210 10 0 60546 63000.00000 0 -6621930.726 -15371898.721 19255038.414 10 0 60546 63900.00000 0 -6411361.087 -17617348.369 17299785.680 10 0 60546 64800.00000 0 -6382374.431 -19611782.193 15008595.876 10 0 60546 65700.00000 0 -6498958.031 -21303351.623 12425847.902 10 0 60546 66600.00000 0 -6716725.513 -22650054.216 9601622.134 10 0 60546 67500.00000 0 -6984988.284 -23621346.705 6590734.645 10 0 60546 68400.00000 0 -7249105.687 -24199295.230 3451675.283 10 0 60546 69300.00000 0 -7453014.272 -24379213.735 245470.079 10 0 60546 70200.00000 0 -7541828.505 -24169763.023 -2965509.750 10 0 60546 71100.00000 0 -7464401.758 -23592505.652 -6118768.413 10 0 60546 72000.00000 0 -7175737.725 -22680935.082 -9152911.081 10 0 60546 72900.00000 0 -6639148.516 -21479019.856 -12008849.414 10 0 60546 73800.00000 0 -5828066.313 -20039324.439 -14630962.406 10 0 60546 74700.00000 0 -4727430.197 -18420786.384 -16968188.833 10 0 60546 75600.00000 0 -3334587.904 -16686244.173 -18975029.073 10 0 60546 76500.00000 0 -1659672.964 -14899820.560 -20612436.162 10 0 60546 77400.00000 0 274559.856 -13124272.218 -21848578.314 10 0 60546 78300.00000 0 2433434.887 -11418417.607 -22659458.042 10 0 60546 79200.00000 0 4771562.970 -9834751.313 -23029376.030 10 0 60546 80100.00000 0 7234505.868 -8417344.855 -22951231.163 10 0 60546 81000.00000 0 9760828.326 -7200121.472 -22426651.452 10 0 60546 81900.00000 0 12284452.319 -6205576.294 -21465953.944 10 0 60546 82800.00000 0 14737215.335 -5443994.299 -20087935.036 10 0 60546 83700.00000 0 17051526.190 -4913197.291 -18319495.881 10 0 60546 84600.00000 0 19163007.915 -4598828.781 -16195110.677 10 0 60546 85500.00000 0 21013017.870 -4475163.012 -13756148.660 99